Showing default

HULIANWANG DIGUI-38, 64959

Orbit data source: Space-Track

HULIANWANG DIGUI-38, 64959 is a payload satellite owned by Zhongguo Xingwang (CN) in LEO that was launched on Sun, 27 Jul 2025 UTC via a CHANG ZHENG 6A launch vehicle from the Taiyaun Space Center, China (TSC). Payload-class satellites include a variety of spacecraft equipped with specific instruments for various scientific and technological missions. These include communications satellites like Starlink; space stations such as the ISS; scientific satellites like the Hubble; Earth observation satellites from companies like Planet Labs, Umbra, and HawkEye 360; GPS; miniature CubeSats for education and research; and military/defense satellites.

Loading next visibility...
Identifier
64959, 2025-159D
Orbit
LEO
Country
Flag of CNCN / PRC
Related business
Manufacturer
CAST
Mission
Operational Civil Communications
Bus & Motor
XINGWANG C, Unknown motor
Mass
~700 kg wet, ~700 kg dry
Launch date (UTC)
2025-07-27 (11 months ago)
Launch vehicle
CHANG ZHENG 6A
Launch site
Taiyaun Space Center, China (TSC)
Object type
Payload
Rocket body
Debris
Shape & HBR
Box + 2 Pan, 2.6 m
Radar Cross Section
5.935 m², Large (>1 m²)

Expand to show TLE details & history
Last TLE update: 12 hours ago

TLE from 12 hours ago
0 HULIANWANG DIGUI-38
1 64959U 25159D   26171.40538882  .00000074  00000-0  13779-3 0  9991
2 64959  86.4967 281.3902 0001872  97.7328 262.4019 13.24407604 43556
Epoch: 2026-06-20T09:43Z
TLE epoch observation values (Epoch: 2026-06-20T09:43:45.594Z)
Latitude
0.00004°
Longitude
-133.17025°
Altitude
1,171.013 km
Speed
7.268 km/s
True Right ascension
18h 45m 33s
True Declination
0° 00' 00"
Sunlit
Object was in full shadow at epoch
Visualization orbit readout
Latitude
Unknown
Longitude
Unknown
Altitude
Unknown
Speed
Unknown
Apparent Right ascension
Unknown
Apparent Declination
Unknown
Sunlit
N/A
Visualization observer readout
Local Sidereal Time
08:42:05
Azimuth
Unknown
Elevation
Unknown
Doppler factor
Unknown
Orbital elements
Apogee altitude
1,166.463 km
Perigee altitude
1,163.639 km
Semi-major axis
7,543.188 km
Eccentricity
0.00019
Inclination
86.4967°
RAAN
281.3902°
Arg. of periapsis
97.7328°
True anomaly
262.38064°
Mean anomaly
262.4019°
Eccentric anomaly
262.39127°
Mean motion
3.31292 °/min
Orbital period
108.67 mins
BSTAR
0.00013779
Loading maneuver chart data...
Computing Atmospheric mass density...
Loading historical data...
Loading historical data...
Loading historical data...
Loading historical data...
Loading historical data...
Loading historical data...
Loading historical data...

Documentation

Showing up to 5 results
|